Location: Battersea Observatory
(44.4318°N, 76.3841°W)
Time: 22:54:56
(UTC-04:00)

Tiros 1 despin weight - Pass Details

Date: 22 January 2022
Orbit: 592 x 639 km, 48.2° (Epoch: 25 May)

Event Time Altitude Azimuth Distance (km) Brightness Sun altitude
Rises 18:41:38 0° 246° (WSW) 2,884 ? -17.8°
Reaches altitude 10° 18:43:55 10° 246° (WSW) 1,988 ? -18.2°
Maximum altitude 18:48:30 88° 157° (SSE) 635 ? -19.0°
Enters shadow 18:50:00 43° 69° (ENE) 888 ? -19.2°
Drops below altitude 10° 18:53:11 10° 69° (ENE) 2,022 - -19.8°
Sets 18:55:31 0° 69° (ENE) 2,937 - -20.2°
